When you browse on this site, cookies collect data to enhance your experience and personalize the content and advertising you see.
Visit our Privacy Policy to learn more. By continuing to use the site, you agree to this use of cookies and data.

Stündliche Wetter Kielce

Heute, 13 Juli, Montag

Zeit Temperatur Niederschläge Wind Luftdruck Luftfeuchtigkeit
00:00 +10°C° 0 mm 2 m/S 739 mmHg 87%
01:00 +10°C° 0 mm 2 m/S 739 mmHg 88%
02:00 +9°C° 0 mm 2 m/S 739 mmHg 88%
03:00 +9°C° 0 mm 2 m/S 739 mmHg 88%
04:00 +8°C° 0 mm 2 m/S 738 mmHg 89%
05:00 +10°C° 0 mm 2 m/S 739 mmHg 83%
06:00 +13°C° 0 mm 2 m/S 739 mmHg 77%
07:00 +14°C° 0 mm 3 m/S 739 mmHg 71%
08:00 +16°C° 0 mm 3 m/S 739 mmHg 66%
09:00 +17°C° 0 mm 3 m/S 739 mmHg 62%
10:00 +18°C° 0 mm 4 m/S 739 mmHg 57%
11:00 +18°C° 0.1 mm 4 m/S 738 mmHg 58%
12:00 +18°C° 0.1 mm 4 m/S 738 mmHg 60%
13:00 +18°C° 0.1 mm 4 m/S 738 mmHg 62%
14:00 +18°C° 0.2 mm 4 m/S 738 mmHg 62%
15:00 +18°C° 0.2 mm 3 m/S 737 mmHg 63%
16:00 +19°C° 0.2 mm 3 m/S 737 mmHg 64%
17:00 +17°C° 0.2 mm 3 m/S 737 mmHg 71%
18:00 +16°C° 0.2 mm 2 m/S 737 mmHg 77%
19:00 +15°C° 0.2 mm 2 m/S 736 mmHg 84%
20:00 +14°C° 0 mm 2 m/S 736 mmHg 87%
21:00 +14°C° 0 mm 2 m/S 736 mmHg 89%
22:00 +13°C° 0 mm 1 m/S 736 mmHg 92%
23:00 +12°C° 0 mm 1 m/S 736 mmHg 93%

Morgen, 14 Juli, Dienstag

Zeit Temperatur Niederschläge Wind Luftdruck Luftfeuchtigkeit
00:00 +12°C° 0 mm 1 m/S 737 mmHg 93%
01:00 +12°C° 0 mm 1 m/S 737 mmHg 94%
02:00 +12°C° 0 mm 1 m/S 736 mmHg 95%
03:00 +11°C° 0 mm 1 m/S 736 mmHg 95%
04:00 +11°C° 0 mm 1 m/S 735 mmHg 95%
05:00 +13°C° 0 mm 1 m/S 736 mmHg 90%
06:00 +14°C° 0 mm 1 m/S 736 mmHg 85%
07:00 +16°C° 0 mm 1 m/S 736 mmHg 80%
08:00 +19°C° 0 mm 1 m/S 736 mmHg 72%
09:00 +20°C° 0 mm 1 m/S 736 mmHg 64%
10:00 +21°C° 0 mm 1 m/S 736 mmHg 56%
11:00 +22°C° 0 mm 1 m/S 735 mmHg 55%
12:00 +22°C° 0 mm 1 m/S 735 mmHg 53%
13:00 +23°C° 0 mm 1 m/S 735 mmHg 51%
14:00 +23°C° 0 mm 1 m/S 734 mmHg 52%
15:00 +23°C° 0 mm 1 m/S 734 mmHg 52%
16:00 +23°C° 0 mm 1 m/S 734 mmHg 52%
17:00 +22°C° 0 mm 1 m/S 734 mmHg 60%
18:00 +20°C° 0 mm 1 m/S 734 mmHg 67%
19:00 +19°C° 0 mm 1 m/S 734 mmHg 74%
20:00 +18°C° 0 mm 1 m/S 734 mmHg 77%
21:00 +16°C° 0 mm 1 m/S 734 mmHg 80%
22:00 +14°C° 0 mm 1 m/S 733 mmHg 83%
23:00 +14°C° 0 mm 1 m/S 734 mmHg 85%

übermorgen, 15 Juli, Mittwoch

Zeit Temperatur Niederschläge Wind Luftdruck Luftfeuchtigkeit
00:00 +14°C° 0 mm 1 m/S 734 mmHg 87%
01:00 +13°C° 0 mm 1 m/S 734 mmHg 88%
02:00 +13°C° 0 mm 1 m/S 733 mmHg 90%
03:00 +13°C° 0 mm 1 m/S 733 mmHg 91%
04:00 +13°C° 0 mm 1 m/S 733 mmHg 92%
05:00 +14°C° 0 mm 2 m/S 733 mmHg 86%
06:00 +16°C° 0 mm 2 m/S 733 mmHg 81%
07:00 +18°C° 0 mm 2 m/S 733 mmHg 75%
08:00 +19°C° 0 mm 2 m/S 733 mmHg 69%
09:00 +21°C° 0 mm 3 m/S 733 mmHg 63%
10:00 +22°C° 0 mm 3 m/S 733 mmHg 58%
11:00 +24°C° 0.1 mm 3 m/S 733 mmHg 56%
12:00 +24°C° 0.1 mm 3 m/S 732 mmHg 55%
13:00 +25°C° 0.1 mm 3 m/S 732 mmHg 54%
14:00 +24°C° 0.3 mm 3 m/S 732 mmHg 56%
15:00 +24°C° 0.3 mm 3 m/S 732 mmHg 58%
16:00 +24°C° 0.3 mm 2 m/S 731 mmHg 59%
17:00 +23°C° 0.3 mm 2 m/S 731 mmHg 66%
18:00 +21°C° 0.3 mm 2 m/S 731 mmHg 72%
19:00 +19°C° 0.3 mm 2 m/S 731 mmHg 78%
20:00 +19°C° 0.4 mm 1 m/S 731 mmHg 81%
21:00 +18°C° 0.4 mm 1 m/S 731 mmHg 83%
22:00 +18°C° 0.4 mm 1 m/S 731 mmHg 86%
23:00 +16°C° 0 mm 1 m/S 731 mmHg 86%

16 Juli, Donnerstag

Zeit Temperatur Niederschläge Wind Luftdruck Luftfeuchtigkeit
00:00 +16°C° 0 mm 1 m/S 731 mmHg 86%
01:00 +16°C° 0 mm 1 m/S 731 mmHg 86%
02:00 +16°C° 0 mm 1 m/S 731 mmHg 86%
03:00 +15°C° 0 mm 1 m/S 731 mmHg 87%
04:00 +15°C° 0 mm 2 m/S 730 mmHg 87%
05:00 +16°C° 0 mm 2 m/S 731 mmHg 86%
06:00 +17°C° 0 mm 2 m/S 731 mmHg 85%
07:00 +18°C° 0 mm 3 m/S 731 mmHg 84%
08:00 +18°C° 0.4 mm 3 m/S 731 mmHg 82%
09:00 +19°C° 0.4 mm 3 m/S 731 mmHg 80%
10:00 +20°C° 0.4 mm 4 m/S 731 mmHg 78%
11:00 +19°C° 0.6 mm 4 m/S 731 mmHg 80%
12:00 +19°C° 0.6 mm 4 m/S 731 mmHg 81%
13:00 +18°C° 0.6 mm 3 m/S 731 mmHg 83%
14:00 +19°C° 0 mm 3 m/S 731 mmHg 79%
15:00 +19°C° 0 mm 3 m/S 731 mmHg 74%
16:00 +20°C° 0 mm 3 m/S 731 mmHg 70%
17:00 +19°C° 0 mm 2 m/S 731 mmHg 73%
18:00 +18°C° 0 mm 2 m/S 731 mmHg 76%
19:00 +19°C° 0 mm 1 m/S 731 mmHg 78%
20:00 +18°C° 0.1 mm 1 m/S 732 mmHg 81%
21:00 +16°C° 0.1 mm 1 m/S 732 mmHg 84%
22:00 +15°C° 0.1 mm 2 m/S 732 mmHg 86%
23:00 +14°C° 0 mm 2 m/S 732 mmHg 89%

17 Juli, Freitag

Zeit Temperatur Niederschläge Wind Luftdruck Luftfeuchtigkeit
00:00 +14°C° 0 mm 2 m/S 732 mmHg 91%
01:00 +13°C° 0 mm 2 m/S 732 mmHg 93%
02:00 +13°C° 0 mm 2 m/S 732 mmHg 94%
03:00 +12°C° 0 mm 2 m/S 732 mmHg 94%
04:00 +12°C° 0 mm 2 m/S 732 mmHg 95%
05:00 +13°C° 0 mm 2 m/S 732 mmHg 90%
06:00 +15°C° 0 mm 2 m/S 733 mmHg 84%
07:00 +16°C° 0 mm 2 m/S 733 mmHg 79%
08:00 +17°C° 0 mm 2 m/S 733 mmHg 72%
09:00 +19°C° 0 mm 2 m/S 733 mmHg 65%
10:00 +20°C° 0 mm 2 m/S 733 mmHg 59%
11:00 +21°C° 0 mm 2 m/S 733 mmHg 57%
12:00 +21°C° 0 mm 2 m/S 733 mmHg 54%
13:00 +23°C° 0 mm 1 m/S 733 mmHg 52%
14:00 +22°C° 0.2 mm 1 m/S 733 mmHg 55%
15:00 +22°C° 0.2 mm 1 m/S 733 mmHg 58%
16:00 +22°C° 0.2 mm 1 m/S 733 mmHg 62%
17:00 +20°C° 0.2 mm 1 m/S 732 mmHg 67%
18:00 +19°C° 0.2 mm 1 m/S 732 mmHg 73%
19:00 +18°C° 0.2 mm 1 m/S 732 mmHg 79%
20:00 +18°C° 0.1 mm 1 m/S 732 mmHg 81%
21:00 +16°C° 0.1 mm 1 m/S 733 mmHg 82%
22:00 +14°C° 0.1 mm 0 m/S 733 mmHg 83%
23:00 +15°C° 0 mm 1 m/S 733 mmHg 85%

18 Juli, Samstag

Zeit Temperatur Niederschläge Wind Luftdruck Luftfeuchtigkeit
00:00 +14°C° 0 mm 1 m/S 733 mmHg 87%
01:00 +14°C° 0 mm 1 m/S 733 mmHg 88%
02:00 +13°C° 0 mm 0 m/S 733 mmHg 90%
03:00 +12°C° 0 mm 0 m/S 733 mmHg 91%
04:00 +12°C° 0 mm 0 m/S 733 mmHg 92%
05:00 +14°C° 0 mm 1 m/S 733 mmHg 88%
06:00 +16°C° 0 mm 1 m/S 733 mmHg 83%
07:00 +18°C° 0 mm 1 m/S 733 mmHg 78%
08:00 +19°C° 0.2 mm 1 m/S 733 mmHg 73%
09:00 +19°C° 0.2 mm 2 m/S 733 mmHg 68%
10:00 +21°C° 0.2 mm 2 m/S 733 mmHg 62%
11:00 +21°C° 0.3 mm 2 m/S 733 mmHg 63%
12:00 +21°C° 0.3 mm 3 m/S 733 mmHg 63%
13:00 +21°C° 0.3 mm 3 m/S 733 mmHg 63%
14:00 +20°C° 0.2 mm 3 m/S 733 mmHg 68%
15:00 +19°C° 0.2 mm 2 m/S 733 mmHg 72%
16:00 +18°C° 0.2 mm 2 m/S 733 mmHg 77%
17:00 +18°C° 0 mm 2 m/S 733 mmHg 80%
18:00 +18°C° 0 mm 1 m/S 733 mmHg 83%
19:00 +18°C° 0 mm 1 m/S 732 mmHg 86%
20:00 +18°C° 0 mm 1 m/S 733 mmHg 89%
21:00 +16°C° 0 mm 1 m/S 733 mmHg 91%
22:00 +16°C° 0 mm 1 m/S 733 mmHg 94%
23:00 +16°C° 0.1 mm 1 m/S 733 mmHg 95%
Mehr zeigen